Weather History for Custer, SD

Change the Weather History Date:

Sunday, November 27, 2011

  Actual Average Record
Temperature  
Mean Temperature 34 °F 27 °F  
Max Temperature 50 °F 37 °F 64 °F (1963)
Min Temperature 17 °F 17 °F -25 °F (1952)
Degree Days  
Heating Degree Days 31 38  
Month to date heating degree days 935 884  
Since 1 July heating degree days 1900 2063  
Cooling Degree Days 0 0  
Month to date cooling degree days 0 0  
Year to date cooling degree days 267 177  
Moisture  
Dew Point 16 °F    
Average Humidity 44    
Maximum Humidity 53    
Minimum Humidity 34    
Precipitation  
Precipitation 0.00 in 0.02 in 0.14 in (1955)
Month to date precipitation 1.20 0.56  
Year to date precipitation 21.22 18.52  
Sea Level Pressure  
Sea Level Pressure 30.24 in    
Wind  
Wind Speed 6 mph (West)    
Max Wind Speed 13 mph    
Max Gust Speed 16 mph    
Visibility 10 miles    
Events      
T = Trace of Precipitation, MM = Missing Value Source: NWS Daily Summary

Daily Weather History Graph

Daily Weather History Graph

Search for Another Location

Airport:

Trip Planner

Search our weather history database for the weather conditions in past years. The results will help you decide how hot, cold, wet, or windy it might be!

Date:

Astronomy

Nov. 27, 2011 Rise Set
Actual Time 7:03 AM MST 4:20 PM MST
Civil Twilight 6:31 AM MST 4:52 PM MST
Nautical Twilight 5:55 AM MST 5:27 PM MST
Astronomical Twilight 5:21 AM MST 6:02 PM MST
Moon 9:31 AM MST (11/27) 7:01 PM MST (11/27)
Length of Visible Light 10h 20m
Length of Day
9h 16m
Waxing Crescent, 9% of the Moon is Illuminated
Nov 27
Waxing Crescent
Dec 2
First Quarter
Dec 10
Full
Dec 17
Last Quarter
Dec 24
New

Hourly Weather History & Observations

Time (MST) Temp. Windchill Dew Point Humidity Pressure Visibility Wind Dir Wind Speed Gust Speed Precip Events Conditions
12:53 AM 18.0 °F 12.7 °F 1.9 °F 50% 30.46 in 10.0 mi West 3.5 mph - N/A   Clear
1:53 AM 19.9 °F - 1.0 °F 44% 30.46 in 10.0 mi Calm Calm - N/A   Clear
2:53 AM 25.0 °F 20.7 °F -0.0 °F 34% 30.43 in 10.0 mi WNW 3.5 mph - N/A   Clear
3:53 AM 24.1 °F 16.0 °F 5.0 °F 44% 30.41 in 10.0 mi WSW 6.9 mph - N/A   Clear
4:53 AM 27.0 °F 19.5 °F 10.9 °F 51% 30.40 in 10.0 mi West 6.9 mph - N/A   Clear
5:53 AM 30.0 °F 24.1 °F 16.0 °F 56% 30.38 in 10.0 mi West 5.8 mph - N/A   Clear
6:53 AM 34.0 °F 31.0 °F 18.0 °F 52% 30.38 in 10.0 mi WNW 3.5 mph - N/A   Clear
7:53 AM 36.0 °F 31.1 °F 16.0 °F 44% 30.37 in 10.0 mi West 5.8 mph - N/A   Clear
8:53 AM 39.9 °F 37.8 °F 16.0 °F 38% 30.35 in 10.0 mi NW 3.5 mph - N/A   Clear
9:53 AM 43.0 °F 39.5 °F 18.0 °F 37% 30.32 in 10.0 mi West 5.8 mph - N/A   Clear
10:53 AM 45.0 °F 39.7 °F 19.9 °F 37% 30.30 in 10.0 mi West 10.4 mph - N/A   Clear
11:53 AM 45.0 °F 39.7 °F 19.9 °F 37% 30.25 in 10.0 mi West 10.4 mph - N/A   Clear
12:53 PM 48.0 °F - 21.0 °F 34% 30.23 in 10.0 mi WNW 11.5 mph - N/A   Clear
1:53 PM 48.9 °F - 21.0 °F 33% 30.18 in 10.0 mi WSW 9.2 mph - N/A   Clear
2:53 PM 48.0 °F - 21.9 °F 36% 30.14 in 10.0 mi WSW 8.1 mph - N/A   Clear
3:53 PM 44.1 °F 39.5 °F 21.0 °F 40% 30.17 in 10.0 mi WSW 8.1 mph - N/A   Clear
4:53 PM 39.9 °F 33.9 °F 21.0 °F 47% 30.15 in 10.0 mi West 9.2 mph - N/A   Clear
5:53 PM 41.0 °F 35.2 °F 19.9 °F 43% 30.12 in 10.0 mi West 9.2 mph - N/A   Clear
6:53 PM 39.0 °F 34.8 °F 19.0 °F 45% 30.09 in 10.0 mi WSW 5.8 mph - N/A   Clear
7:53 PM 36.0 °F - 19.0 °F 50% 30.09 in 10.0 mi Calm Calm - N/A   Clear
8:53 PM 39.9 °F 36.7 °F 17.1 °F 40% 30.04 in 10.0 mi West 4.6 mph - N/A   Clear
9:53 PM 41.0 °F 35.8 °F 17.1 °F 38% 30.02 in 10.0 mi West 8.1 mph - N/A   Clear
10:53 PM 37.9 °F 34.4 °F 18.0 °F 45% 30.03 in 10.0 mi SW 4.6 mph - N/A   Clear
11:53 PM 41.0 °F 37.1 °F 18.0 °F 40% 30.01 in 10.0 mi WSW 5.8 mph - N/A   Clear